Hourly Data Report for February 02, 2021

TORONTO CITY
ONTARIO
Current Station Operator: ECCC - MSC

43°40'00.000" N
79°24'00.000" W
112.50 m
6158355
71508
XTO

Download Data

Hourly Data (February 2021)
Hourly Data Report for February 2, 2021
TIME
LST
Temp Definition
°C
Dew Point Definition
°C
Rel Hum Definition
%
Precip. Amount Definition
mm

Wind Dir Definition
10's deg

Wind Spd Definition
km/h
Visibility Definition
km
Stn Press Definition
kPa
Hmdx Definition


Wind Chill Definition


Weather Definition


00:00 -5.0 -15.0 46 0.0       100.34     LegendNANA
01:00 -5.5 -15.4 46 0.0       100.29     LegendNANA
02:00 -6.4 -15.5 49 0.0       100.25     LegendNANA
03:00 -6.8 -15.7 49 0.0       100.21     LegendNANA
04:00 -7.2 -15.4 52 0.0       100.20     LegendNANA
05:00 -7.3 -15.4 52 0.0       100.19     LegendNANA
06:00 -7.4 -15.2 54 0.0       100.18     LegendNANA
07:00 -7.1 -14.3 56 0.0       100.16     LegendNANA
08:00 -6.5 -13.1 59 0.0       100.09     LegendNANA
09:00 -5.9 -13.0 57 0.0       100.04     LegendNANA
10:00 -4.4 -12.3 54 0.0       99.97     LegendNANA
11:00 -3.1 -13.1 46 0.0       99.90     LegendNANA
12:00 -2.6 -13.4 43 0.0       99.78     LegendNANA
13:00 -1.5 -11.2 48 0.0       99.66     LegendNANA
14:00 -0.5 -9.8 49 0.0       99.62     LegendNANA
15:00 -0.7 -9.3 52 0.0       99.58     LegendNANA
16:00 -0.2 -8.2 54 0.0       99.53     LegendNANA
17:00 -0.2 -7.1 59 0.0       99.52     LegendNANA
18:00 -0.3 -6.3 64 0.0       99.55     LegendNANA
19:00 -0.5 -7.0 62 0.0       99.53     LegendNANA
20:00 -0.4 -8.0 57 0.0       99.51     LegendNANA
21:00 -0.5 -8.0 57 0.0       99.51     LegendNANA
22:00 -0.8 -8.3 57 0.0       99.49     LegendNANA
23:00 -1.6 -8.8 58 0.0       99.46     LegendNANA

Notes on Data Quality.

Legend

  • E = Estimated
  • M = Missing
  • NA = Not Available*
  • [empty] = Indicates an unobserved value
Date modified: